Regional Weather Roundup
Issued by NWS

Home | Current Version | Previous Version | Text Only | Print | Product List | Glossary Off
Versions: 1 2 3 4 5 6 7 8 9 10 11 12 13 14 15 16 17 18 19 20 21 22 23 24 25 26 27 28 29 30 31 32 33 34 35 36 37 38 39 40 41 42 43 44 45 46 47 48 49 50

000
ASUS43 KDTX 272010
RWRMI
MICHIGAN HOURLY REGIONAL WEATHER ROUNDUP
NATIONAL WEATHER SERVICE DETROIT/PONTIAC MI
300 PM EST TUE JAN 27 2015

NOTE: "FAIR" INDICATES FEW OR NO CLOUDS BELOW 12,000 FEET WITH NO
SIGNIFICANT WEATHER AND/OR OBSTRUCTION TO VISIBILITY.

MIZ047>049-052>055-059>063-066>070-074>076-081>083-272100-
SOUTHEAST LOWER MICHIGAN

CITY           SKY/WX    TMP DP  RH WIND       PRES   REMARKS
ADRIAN         SUNNY     26  12  55 N7        30.12R
ALMA           SUNNY     26   9  49 NW8       30.17R
ANN ARBOR      SUNNY     28  12  51 N9        30.11R
BAD AXE        PTSUNNY   22  15  75 N10       30.14R
DETROIT CITY   MOSUNNY   28  12  51 N12       30.11R
DETROIT        MOSUNNY   28  13  53 N10       30.11S
FLINT          SUNNY     27  12  53 N14       30.13R
GROSSE ILE     SUNNY     27  12  54 N10       30.09S
HILLSDALE      SUNNY     25  10  52 N8        30.10R
HOWELL         MOSUNNY   24  12  62 NW10      30.11R

CITY           SKY/WX    TMP DP  RH WIND       PRES   REMARKS
JACKSON        SUNNY     27  11  51 N9        30.12R
LAMBERTVILLE   SUNNY     28  12  50 N8        30.11S
LANSING        MOSUNNY   27  13  55 N6        30.16R
LAPEER         NOT AVBL
MASON          MOSUNNY   24  13  62 N9        30.13R
MONROE         SUNNY     27  12  54 N8        30.09S
MT. CLEMENS    MOSUNNY   26  13  58 SW15      30.08S
PONTIAC        MOSUNNY   25  10  53 N10       30.09R
PORT HOPE        N/A     23  12  62 N14       30.14S
PORT HURON     CLOUDY    23  14  68 N9        30.11R
TRI CITIES     SUNNY     25  12  58 NE10      30.17R
YPSILANTI      SUNNY     31  13  47 NW13      30.11R
$$
MIZ043>046-050>051-056>058-064>065-071>073-077>080-272100-
SOUTHWEST LOWER MICHIGAN

CITY           SKY/WX    TMP DP  RH WIND       PRES   REMARKS
BATTLE CREEK   SUNNY     28  13  53 N8        30.15R
BENTON HARBOR  SUNNY     26  13  57 N9        30.18R
BIG RAPIDS     SUNNY     26  10  50 N6        30.16R
COLDWATER      SUNNY     26  11  54 N7        30.13R
HOLLAND        SUNNY     28  10  46 VRB5      30.19R
GRAND RAPIDS   MOSUNNY   28  11  48 VRB7      30.18R
KALAMAZOO      SUNNY     27  11  51 N8        30.16R
MARSHALL       MOSUNNY   25  12  57 N3        30.13R
MUSKEGON       SUNNY     29   9  43 NW5       30.19S
$$
MIZ016>042-272100-
NORTHERN LOWER MICHIGAN

CITY           SKY/WX    TMP DP  RH WIND       PRES   REMARKS
ALPENA         SUNNY     20   6  55 N8        30.19S
BEAVER ISLAND  SUNNY     19   1  44 CALM      30.23S
BELLAIRE       SUNNY     26   2  36 N3        30.21R
CADILLAC       SUNNY     25   0  34 N5        30.13S
CHARLEVOIX     SUNNY     21  13  71 NW8       30.25R
FRANKFORT      PTCLDY    26  16  67 N6        30.21S
GAYLORD        SUNNY     22  -1  36 VRB3      30.14S
GRAYLING       SUNNY     22  -1  36 NE6       30.16R
HARBOR SPRINGS SUNNY     22   4  45 CALM      30.21R
HOUGHTON LAKE  SUNNY     25   0  33 VRB5      30.14S
MANISTEE       SUNNY     27  10  50 NW8       30.21S
OSCODA         SUNNY     22  11  63 NE12      30.17R
PELLSTON       SUNNY     21   6  52 W3        30.22R
TRAVERSE CITY  SUNNY     24  11  57 N9        30.20R
$$
MIZ007>008-015-272100-
EASTERN UPPER MICHIGAN

CITY           SKY/WX    TMP DP  RH WIND       PRES   REMARKS
KINROSS        SUNNY     28   1  31 CALM      30.21S
MACKINAC ISLAN SUNNY     19  -2  39 CALM      30.22R
NEWBERRY       SUNNY     20  -3  36 CALM      30.20F
S. S. MARIE    SUNNY     18  -4  37 CALM      30.22R
$$
MIZ004>006-011>014-085-272100-
CENTRAL UPPER MICHIGAN

CITY           SKY/WX    TMP DP  RH WIND       PRES   REMARKS
MANISTIQUE     SUNNY     20  11  67 S5        30.23S
ESCANABA       PTSUNNY   23  16  74 S6        30.23S
MENOMINEE      SUNNY     27  18  69 SE6       30.22S
SAWYER-GWINN   FLURRIES  23  16  74 SW5       30.17F
$$
MIZ001>003-009>011-084-272100-
WESTERN UPPER MICHIGAN

CITY           SKY/WX    TMP DP  RH WIND       PRES   REMARKS
IRON MOUNTAIN  CLOUDY    23  16  74 S3        30.17F
HOUGHTON       PTSUNNY   25  16  68 S8        30.16R
COPPER HARBOR    N/A     26  19  74 SW6       30.19S
IRONWOOD       CLOUDY    27  21  80 SW7       30.13F
$$

ABBREVIATIONS USED IN REMARKS
   TC - TEMPERATURE IN CELSIUS
  WCI - WIND CHILL INDEX
   HX - HEAT INDEX
  VSB - VISIBILITY



USA.gov is the U.S. government's official web portal to all federal, state and local government web resources and services.